Location: Wells
(51.2093°N, 2.6446°W)
Time: 06:15:08
(UTC+01:00)

PCSat - Pass Details

Date: 17 March 2026
Orbit: 780 x 790 km, 67.1° (Epoch: 13 April)

Event Time Altitude Azimuth Distance (km) Brightness Sun altitude
Rises 04:30:23 0° 320° (NW) 3,296 12.6 -17.7°
Reaches altitude 10° 04:33:16 10° 334° (NNW) 2,365 12.0 -17.3°
Maximum altitude 04:37:40 24° 29° (NNE) 1,582 11.7 -16.6°
Drops below altitude 10° 04:42:03 10° 83° (E) 2,358 13.3 -16.0°
Sets 04:44:54 0° 97° (E) 3,284 14.0 -15.6°
